Fountain Dale, PA

4:04 AM EDT on October 19, 2017 (GMT -0400)
Fountain Dale

Weather History for KRYT - August, 2013

Change the Weather History Date:

Thursday, August 8, 2013

  Actual Average (KHGR) Record (KHGR)
Temperature  
Mean Temperature 81 °F -  
Max Temperature 91 °F 82 °F 98 °F (2007)
Min Temperature 73 °F 63 °F 51 °F (1997)
Cooling Degree Days 16    
Growing Degree Days 31 (Base 50)    
Moisture  
Dew Point 68 °F    
Average Humidity 68    
Maximum Humidity 78    
Minimum Humidity 53    
Precipitation  
Precipitation 0.07 in - - ()
Sea Level Pressure  
Sea Level Pressure 30.00 in    
Wind  
Wind Speed 1 mph (SSW)    
Max Wind Speed 6 mph    
Max Gust Speed -    
Visibility 6 miles    
Events Rain    
Averages and records for this station are not official NWS values.
T = Trace of Precipitation, MM = Missing Value Source: NWS Daily Summary

Daily Weather History Graph

Daily Weather History Graph

Search for Another Location

Airport or City:

Trip Planner

Search our weather history database for the weather conditions in past years. The results will help you decide how hot, cold, wet, or windy it might be!

Date:

Astronomy

Aug. 08, 2013 Rise Set
Actual Time 6:15 AM EDT 8:14 PM EDT
Civil Twilight 5:45 AM EDT 8:43 PM EDT
Nautical Twilight 5:09 AM EDT 9:19 PM EDT
Astronomical Twilight 4:31 AM EDT 9:58 PM EDT
Moon 7:59 AM EDT (8/8) 8:52 PM EDT (8/8)
Length of Visible Light 14h 57m
Length of Day
13h 59m
Waxing Crescent, 3% of the Moon is Illuminated
Aug 8
Waxing Crescent
Aug 14
First Quarter
Aug 20
Full
Aug 28
Last Quarter
Sep 5
New

Hourly Weather History & Observations

Time (EDT) Temp. Heat Index Dew Point Humidity Pressure Visibility Wind Dir Wind Speed Gust Speed Precip Events Conditions
12:05 AM 75.2 °F - 64.4 °F 69% 30.04 in 9.0 mi Calm Calm - N/A   Mostly Cloudy
12:53 AM 75.0 °F - 64.9 °F 71% 30.02 in 10.0 mi Calm Calm - N/A   Scattered Clouds
1:53 AM 73.9 °F - 64.9 °F 73% 29.99 in 8.0 mi Calm Calm - N/A   Overcast
2:53 AM 73.9 °F - 64.9 °F 73% 29.98 in 5.0 mi Calm Calm - N/A   Haze
3:21 AM 73.4 °F - 64.4 °F 73% 30.02 in 2.5 mi Calm Calm - N/A   Haze
3:32 AM 73.4 °F - 64.4 °F 73% 30.02 in 7.0 mi Calm Calm - N/A   Mostly Cloudy
3:42 AM 73.4 °F - 64.4 °F 73% 30.02 in 8.0 mi Calm Calm - N/A   Scattered Clouds
3:53 AM 73.9 °F - 64.0 °F 71% 29.97 in 5.0 mi Calm Calm - N/A   Haze
4:53 AM 73.0 °F - 64.0 °F 73% 29.96 in 1.0 mi Calm Calm - N/A   Haze
5:06 AM 73.4 °F - 64.4 °F 73% 30.01 in 6.0 mi Calm Calm - N/A   Haze
5:16 AM 73.4 °F - 64.4 °F 73% 30.01 in 2.5 mi Calm Calm - N/A   Haze
5:23 AM 73.4 °F - 64.4 °F 73% 30.01 in 7.0 mi Calm Calm - N/A   Mostly Cloudy
5:41 AM 73.4 °F - 64.4 °F 73% 30.02 in 6.0 mi Calm Calm - N/A   Haze
5:53 AM 73.9 °F - 64.9 °F 73% 29.98 in 6.0 mi Calm Calm - N/A   Haze
6:13 AM 73.4 °F - 64.4 °F 73% 30.02 in 4.0 mi Calm Calm - N/A   Haze
6:45 AM 73.4 °F - 64.4 °F 73% 30.03 in 4.0 mi Calm Calm - N/A   Haze
6:53 AM 75.9 °F - 66.0 °F 71% 29.98 in 4.0 mi Calm Calm - N/A   Haze
7:14 AM 73.4 °F - 64.4 °F 73% 30.03 in 0.8 mi Calm Calm - N/A   Haze
7:23 AM 73.4 °F - 64.4 °F 73% 30.03 in 0.2 mi Calm Calm - N/A   Haze
7:53 AM 75.0 °F - 66.0 °F 73% 30.00 in 0.2 mi Calm Calm - N/A   Haze
8:07 AM 75.2 °F - 68.0 °F 78% 30.04 in 0.5 mi Calm Calm - N/A   Haze
8:39 AM 78.8 °F - 69.8 °F 74% 30.04 in 6.0 mi Calm Calm - N/A   Haze
8:53 AM 80.1 °F 82.9 °F 69.1 °F 69% 29.99 in 9.0 mi Variable 3.5 mph - N/A   Partly Cloudy
9:53 AM 81.0 °F 84.4 °F 70.0 °F 69% 29.99 in 8.0 mi Variable 3.5 mph - N/A   Overcast
10:02 AM 84.2 °F 88.4 °F 69.8 °F 62% 30.04 in 8.0 mi Calm Calm - N/A   Overcast
10:15 AM 84.2 °F 88.4 °F 69.8 °F 62% 30.04 in 8.0 mi Calm Calm - N/A   Overcast
10:22 AM 84.2 °F 88.4 °F 69.8 °F 62% 30.04 in 7.0 mi Calm Calm - N/A   Overcast
10:39 AM 86.0 °F 90.4 °F 69.8 °F 58% 30.04 in 9.0 mi Calm Calm - N/A   Mostly Cloudy
10:53 AM 86.0 °F 91.5 °F 71.1 °F 61% 29.99 in 9.0 mi Calm Calm - N/A   Mostly Cloudy
11:53 AM 87.1 °F 92.0 °F 70.0 °F 57% 29.99 in 10.0 mi SSW 5.8 mph - N/A   Overcast
12:17 PM 86.0 °F 90.4 °F 69.8 °F 58% 30.03 in 10.0 mi Variable 3.5 mph - N/A   Overcast
12:27 PM 87.8 °F 92.6 °F 69.8 °F 55% 30.03 in 10.0 mi Calm Calm - N/A   Overcast
12:53 PM 87.1 °F 91.3 °F 69.1 °F 55% 29.98 in 10.0 mi SW 4.6 mph - N/A   Overcast
1:53 PM 87.1 °F 92.8 °F 71.1 °F 59% 29.98 in 10.0 mi Calm Calm - N/A   Overcast
2:29 PM 87.8 °F 93.8 °F 71.6 °F 58% 30.02 in 10.0 mi Variable 4.6 mph - N/A   Overcast
3:53 PM 89.1 °F 94.1 °F 70.0 °F 53% 29.95 in 10.0 mi Variable 5.8 mph - N/A   Scattered Clouds
4:53 PM 87.1 °F 92.0 °F 70.0 °F 57% 29.95 in 10.0 mi SW 5.8 mph - 0.00 in   Mostly Cloudy
5:53 PM 84.9 °F 90.7 °F 72.0 °F 65% 29.94 in 6.0 mi Calm Calm - 0.00 in Rain Light Rain
6:53 PM 82.9 °F 87.5 °F 71.1 °F 67% 29.95 in 8.0 mi South 3.5 mph - 0.04 in   Scattered Clouds
7:53 PM 81.0 °F 84.9 °F 71.1 °F 72% 29.96 in 6.0 mi Calm Calm - 0.00 in   Haze
8:53 PM 80.1 °F 83.6 °F 71.1 °F 74% 29.96 in 6.0 mi Calm Calm - N/A   Haze
9:53 PM 81.0 °F 84.9 °F 71.1 °F 72% 29.96 in 5.0 mi Calm Calm - 0.01 in Rain Light Rain
10:53 PM 80.1 °F 83.6 °F 71.1 °F 74% 29.95 in 4.0 mi Calm Calm - 0.02 in Rain Light Rain
11:16 PM 80.6 °F 84.6 °F 71.6 °F 74% 29.99 in 1.8 mi Calm Calm - 0.00 in Rain Light Rain
11:26 PM 80.6 °F 84.6 °F 71.6 °F 74% 29.99 in 0.5 mi Calm Calm - 0.00 in Rain Light Rain
11:58 PM 80.6 °F 84.6 °F 71.6 °F 74% 29.98 in 3.0 mi Calm Calm - 0.00 in Rain Light Rain